Powrót do katalogu

ATLAS 2 CENTAUR R/B

AktywnyGTO
NORAD 21804·ROCKET BODY·🇺🇸 United States

Wystrzelony Dec 7, 1991 z Cape Canaveral Space Force Station

Loading…

TLE

NieaktualneSource: Space-Track

Epoka: Sep 14, 2026, 01:02 UTC

1 21804U 91083B   26257.04314547 -.00000071  00000-0  50567-2 0  9990
2 21804  17.1726 256.4584 7345325 322.1676   3.9588  1.91162481242926

Śledź ATLAS 2 CENTAUR R/B w czasie rzeczywistym z AllMySat

Download on the App Store